星链-31306 (STARLINK-31306 )

导读

STARLINK-31306是美国SpaceX公司星链(Starlink)星座中的一颗低轨通信卫星,于2024年1月29日发射升空,属于星链快速扩张阶段的组网卫星。它运行在近地轨道,依托星链成熟的相控阵天线、氩霍尔推进等技术,为全球提供高速低延迟宽带互联网接入,助力星链实现全球偏远地区网络覆盖,支撑卫星互联网服务的规模化部署。

Basic Information
目录编号:
58876
目录名称:
STARLINK-31306
国际标识:
2024-020A
轨道中心:
EARTH
卫星名称:
星链-31306
卫星全名:
星链-31306 (STARLINK-31306 )
卫星状态:
在轨 (已飞行949 天)
发射日期:
2024-01-29 UTC
国别 :
美国 (US)
星等 :
--
Orbit Information
数据来源 国际轨道数据
星历时间: 2026-09-04T06:01:06+0800
10小时前
查看轨道信息
半长轴: 6840.877km
偏心率: 0.0001383
轨道倾角: 53.159°
近地点辐角 92.202°
升交点赤经 211.377°
平近点角 267.914°
近地点: 461.793km
远地点: 463.687km
周期: 93.849分钟
每日圈数: 15.343877
Detailed Information
固有亮度:
5
最大亮度:
0.3
卫星平台:
Starlink v2.0 mini
覆盖范围:
全球
运营商:
太空探索技术公司
运营商所在国:
美国
制造商(研发单位):
太空探索技术公司
制造商所在国:
美国
使用方式:
暂无
Satellite Introduction
星链(Starlink)计划是由太空探索技术公司(SpaceX)提出的一个巨型低轨卫星互联网星座项目,计划在2019年至2024年间在太空搭建由约1.2万颗卫星组成的“星链”网络,其中1584颗将部署在地球上空550千米处的近地轨道,并从2020年开始工作。该卫星仍在工作。
2D Orbit Map
3D Orbit Map
Orbit Altitude Analysis Chart
Orbit Inclination Analysis Chart
Orbit Comprehensive Analysis Chart
View Comprehensive Chart
Conjunction Data List
Event ID Objects TCA Miss Dist (km) Collision Risk Probability Collision Risk Index (CRI) Action
CDM_260828-021005-887606-916921
2026-08-28T
02:10:10+0000
0.503 km
远距离
1.277138E-4 高风险 0.77
CDM_260905-015205-887606-420421
2026-09-05T
01:52:38+0000
1.006 km
极远距离
1.671141E-5 中风险 0.59
CDM_260905-120805-702305-887621
OBJECT V (57023)
2026-09-05T
12:08:28+0000
1.271 km
极远距离
1.163543E-5 中风险 0.56
CDM_260905-001805-887606-420421
2026-09-05T
00:18:51+0000
1.340 km
极远距离
6.223422E-6 低风险 0.51